Weather History for 94368 - January, 2014

Change the Weather History Date:

Wednesday, January 22, 2014

  Actual Average Record
Temperature  
Mean Temperature 82 °F -  
Max Temperature 86 °F - - ()
Min Temperature 77 °F - - ()
Cooling Degree Days 16    
Growing Degree Days 32 (Base 50)    
Moisture  
Dew Point 73 °F    
Average Humidity 75    
Maximum Humidity 83    
Minimum Humidity 63    
Precipitation  
Precipitation 0.00 in - - ()
Sea Level Pressure  
Sea Level Pressure 29.85 in    
Wind  
Wind Speed 9 mph ()    
Max Wind Speed 17 mph    
Max Gust Speed -    
Visibility 6.2 miles    
Events      
T = Trace of Precipitation, MM = Missing Value Source: Averaged Metar Reports

Daily Weather History Graph

Daily Weather History Graph

Search for Another Location

Airport or City:

Trip Planner

Search our weather history database for the weather conditions in past years. The results will help you decide how hot, cold, wet, or windy it might be!

Date:

Astronomy

Jan. 22, 2014 Rise Set
Actual Time 5:41 AM AEST 6:50 PM AEST
Civil Twilight 5:17 AM AEST 7:13 PM AEST
Nautical Twilight 4:48 AM AEST 7:42 PM AEST
Astronomical Twilight 4:19 AM AEST 8:11 PM AEST
Moon 10:30 PM AEST (1/22) 10:23 AM AEST (1/22)
Length of Visible Light 13h 56m
Length of Day
13h 08m
Waning Gibbous, 71% of the Moon is Illuminated
Jan 22
Waning Gibbous
Jan 24
Last Quarter
Jan 31
New
Feb 7
First Quarter
Feb 15
Full

Hourly Weather History & Observations

Time (AEST) Temp. Heat Index Dew Point Humidity Pressure Visibility Wind Dir Wind Speed Gust Speed Precip Events Conditions
12:00 AM 78 °F - 72 °F 77% 29.84 in - NNE 5.8 mph - -  
12:00 AM 78.8 °F - 71.6 °F 78% 29.83 in 6.2 mi NNE 5.8 mph - N/A   Unknown
12:30 AM 78.8 °F - 71.6 °F 78% 29.83 in 6.2 mi NNE 5.8 mph - N/A   Unknown
1:00 AM 78.8 °F - 71.6 °F 78% 29.83 in 6.2 mi NE 5.8 mph - N/A   Unknown
1:30 AM 78.8 °F - 71.6 °F 78% 29.83 in 6.2 mi NE 6.9 mph - N/A   Unknown
2:00 AM 77.0 °F - 71.6 °F 83% 29.83 in 6.2 mi NE 5.8 mph - N/A   Unknown
2:30 AM 77.0 °F - 71.6 °F 83% 29.80 in 6.2 mi NE 4.6 mph - N/A   Unknown
3:00 AM 78 °F - 72 °F 76% 29.81 in - NE 5.8 mph - -  
3:00 AM 77.0 °F - 71.6 °F 83% 29.80 in 6.2 mi NE 5.8 mph - N/A   Unknown
3:30 AM 77.0 °F - 71.6 °F 83% 29.80 in 6.2 mi NE 6.9 mph - N/A   Unknown
4:00 AM 77.0 °F - 71.6 °F 83% 29.80 in 6.2 mi NNE 6.9 mph - N/A   Unknown
4:30 AM 77.0 °F - 71.6 °F 83% 29.80 in 6.2 mi ENE 6.9 mph - N/A   Unknown
5:00 AM 77.0 °F - 71.6 °F 83% 29.83 in 6.2 mi ENE 8.1 mph - N/A   Unknown
5:30 AM 78.8 °F - 71.6 °F 78% 29.83 in 6.2 mi ENE 6.9 mph - N/A   Unknown
6:00 AM 78 °F - 72 °F 77% 29.84 in - NE 5.8 mph - -  
6:00 AM 78.8 °F - 71.6 °F 78% 29.83 in 6.2 mi NE 5.8 mph - N/A   Unknown
6:30 AM 78.8 °F - 73.4 °F 83% 29.86 in 6.2 mi NE 5.8 mph - N/A   Unknown
7:00 AM 78.8 °F - 73.4 °F 83% 29.86 in 6.2 mi ENE 6.9 mph - N/A   Unknown
7:30 AM 78.8 °F - 73.4 °F 83% 29.86 in 6.2 mi ENE 8.1 mph - N/A   Unknown
8:00 AM 82.4 °F 88.2 °F 73.4 °F 74% 29.86 in 6.2 mi East 12.7 mph - N/A   Unknown
8:30 AM 84.2 °F 90.9 °F 73.4 °F 70% 29.89 in 6.2 mi East 11.5 mph - N/A   Unknown
9:00 AM 84 °F - 74 °F 64% 29.88 in - East 10.4 mph - -  
9:00 AM 84.2 °F 90.9 °F 73.4 °F 70% 29.89 in 6.2 mi East 10.4 mph - N/A   Unknown
9:30 AM 84.2 °F 92.3 °F 75.2 °F 74% 29.89 in 6.2 mi East 11.5 mph - N/A   Unknown
10:00 AM 84.2 °F 90.9 °F 73.4 °F 70% 29.89 in 6.2 mi East 11.5 mph - N/A   Unknown
10:30 AM 86.0 °F 95.1 °F 75.2 °F 70% 29.86 in 6.2 mi ESE 11.5 mph - N/A   Unknown
11:00 AM 86.0 °F 93.4 °F 73.4 °F 66% 29.86 in 6.2 mi East 11.5 mph - N/A   Unknown
11:30 AM 86.0 °F 93.4 °F 73.4 °F 66% 29.86 in 6.2 mi East 12.7 mph - N/A   Unknown
12:00 PM 85 °F - 74 °F 63% 29.86 in - East 13.8 mph - -  
12:00 PM 86.0 °F 93.4 °F 73.4 °F 66% 29.86 in 6.2 mi East 13.8 mph - N/A   Unknown
12:30 PM 86.0 °F 93.4 °F 73.4 °F 66% 29.86 in 6.2 mi East 13.8 mph - N/A   Unknown
1:00 PM 84.2 °F 90.9 °F 73.4 °F 70% 29.83 in 6.2 mi East 13.8 mph - N/A   Unknown
1:30 PM 84.2 °F 90.9 °F 73.4 °F 70% 29.83 in 6.2 mi East 15.0 mph - N/A   Unknown
2:00 PM 84.2 °F 90.9 °F 73.4 °F 70% 29.83 in 6.2 mi East 16.1 mph - N/A   Unknown
2:30 PM 84.2 °F 90.9 °F 73.4 °F 70% 29.83 in 6.2 mi East 15.0 mph - N/A   Unknown
3:00 PM 84 °F - 73 °F 63% 29.82 in - East 16.1 mph - -  
3:00 PM 84.2 °F 90.9 °F 73.4 °F 70% 29.83 in 6.2 mi East 16.1 mph - N/A   Unknown
3:30 PM 82.4 °F 88.2 °F 73.4 °F 74% 29.83 in 6.2 mi East 15.0 mph - N/A   Unknown
4:00 PM 84.2 °F 90.9 °F 73.4 °F 70% 29.83 in 6.2 mi East 15.0 mph - N/A   Unknown
4:30 PM 82.4 °F 87.2 °F 71.6 °F 70% 29.83 in 6.2 mi East 16.1 mph - N/A   Unknown
5:00 PM 82.4 °F 88.2 °F 73.4 °F 74% 29.83 in 6.2 mi East 16.1 mph - N/A   Unknown
5:30 PM 82.4 °F 88.2 °F 73.4 °F 74% 29.83 in 6.2 mi East 17.3 mph - N/A   Unknown
6:00 PM 82 °F - 73 °F 68% 29.85 in - East 17.3 mph - -  
6:00 PM 82.4 °F 88.2 °F 73.4 °F 74% 29.86 in 6.2 mi East 17.3 mph - N/A   Unknown
6:30 PM 80.6 °F 84.6 °F 71.6 °F 74% 29.86 in 6.2 mi East 17.3 mph - N/A   Unknown
7:00 PM 80.6 °F 85.4 °F 73.4 °F 79% 29.86 in 6.2 mi ENE 16.1 mph - N/A   Unknown
7:30 PM 80.6 °F 85.4 °F 73.4 °F 79% 29.86 in 6.2 mi ENE 13.8 mph - N/A   Unknown
8:00 PM 80.6 °F 85.4 °F 73.4 °F 79% 29.89 in 6.2 mi ENE 13.8 mph - N/A   Unknown
8:30 PM 80.6 °F 85.4 °F 73.4 °F 79% 29.89 in 6.2 mi ENE 15.0 mph - N/A   Unknown
9:00 PM 80 °F - 73 °F 73% 29.89 in - ENE 12.7 mph - -  
9:00 PM 80.6 °F 85.4 °F 73.4 °F 79% 29.89 in 6.2 mi ENE 12.7 mph - N/A   Unknown
9:30 PM 80.6 °F 85.4 °F 73.4 °F 79% 29.89 in 6.2 mi ENE 13.8 mph - N/A   Unknown
10:00 PM 80.6 °F 85.4 °F 73.4 °F 79% 29.89 in 6.2 mi ENE 11.5 mph - N/A   Unknown
10:30 PM 80.6 °F 85.4 °F 73.4 °F 79% 29.92 in 6.2 mi East 12.7 mph - N/A   Unknown
11:00 PM 80.6 °F 85.4 °F 73.4 °F 79% 29.92 in 6.2 mi ENE 11.5 mph - N/A   Unknown
11:30 PM 80.6 °F 84.6 °F 71.6 °F 74% 29.89 in 6.2 mi East 12.7 mph - N/A   Unknown